This demonstration page uses our WeatherBlox Daily Observations layout. Learn more.

Left ArrowRight Arrow

39.01783, -85.05884

Hourly Observations for November 5, 2018

Temp ( °F °C ) Dew Point ( °F °C ) Humidity (%) Winds ( mph kmh ) Pressure ( in mb ) Visibility ( mi km ) Precip ( " mm )
12:33 am 00:33 Cloudy with Rain 50 10 49 9.4 96 96 S 12 19 30.03 1017 3 5 0.04 1.02
12:52 am 00:52 Cloudy 51 10.6 51 10.6 100 100 S 12 19 30.01 1016 10 16 0.07 1.78
1:52 am 01:52 Cloudy with Light Rain 51 10.6 51 10.6 100 100 SSW 10 17 30.01 1016 7 11 0.01 0.25
2:52 am 02:52 Cloudy 52 11.1 52 11.1 100 100 SSW 9 15 30.01 1016 10 16 0.00 0.03
3:52 am 03:52 Cloudy 52 11.1 51 10.6 97 97 SSW 9 15 30.00 1016 10 16 0.00 0.00
4:31 am 04:31 Cloudy 52 11.1 51 10.6 97 97 S 8 13 30.00 1016 10 16 0.00 0.00
4:52 am 04:52 Cloudy 52 11.1 51 10.6 97 97 SSW 8 13 30.01 1016 10 16 0.00 0.00
5:33 am 05:33 Cloudy 53 11.7 51 10.6 93 93 S 8 13 30.03 1017 10 16 0.00 0.00
5:52 am 05:52 Cloudy 53 11.7 51 10.6 93 93 S 7 11 30.02 1017 10 16 0.00 0.00
6:38 am 06:38 Cloudy with Drizzle 53 11.7 51 10.6 93 93 S 8 13 30.03 1017 6 10 0.00 0.03
6:52 am 06:52 Cloudy 53 11.7 51 10.6 93 93 S 6 9 30.02 1017 9 14 0.00 0.03
7:22 am 07:22 Cloudy 52 11.1 51 10.6 97 97 S 7 11 30.03 1017 10 16 0.00 0.00
7:24 am 07:24 Cloudy 52 11.1 51 10.6 97 97 S 8 13 30.03 1017 10 16 0.00 0.00
7:52 am 07:52 Cloudy 53 11.7 52 11.1 96 96 S 8 13 30.03 1017 10 16 0.00 0.00
8:31 am 08:31 Mostly Cloudy 53 11.7 52 11.1 96 96 S 8 13 30.03 1017 10 16 0.00 0.00
8:52 am 08:52 Mostly Cloudy 54 12.2 52 11.1 93 93 S 9 15 30.05 1018 10 16 0.00 0.00
9:16 am 09:16 Cloudy 54 12.2 53 11.7 97 97 S 12 19 30.06 1018 10 16 0.00 0.00
9:35 am 09:35 Mostly Cloudy 55 12.8 53 11.7 93 93 S 9 15 30.03 1017 10 16 0.00 0.00
9:52 am 09:52 Cloudy 55 12.8 52 11.1 90 90 S 8 13 30.04 1017 10 16 0.00 0.00
10:03 am 10:03 Mostly Cloudy 55 12.8 53 11.7 93 93 S 8 13 30.06 1018 10 16 0.00 0.00
10:52 am 10:52 Cloudy 56 13.3 52 11.1 87 87 S 10 17 30.04 1017 10 16 0.00 0.00
11:26 am 11:26 Cloudy 56 13.3 51 10.6 84 84 SSW 9 15 30.06 1018 10 16 0.00 0.00
11:42 am 11:42 Mostly Cloudy 57 13.9 51 10.6 81 81 SSW 9 15 30.06 1018 10 16 0.00 0.00
11:52 am 11:52 Mostly Cloudy 58 14.4 52 11.1 81 81 SSW 9 15 30.03 1017 10 16 0.00 0.00
12:52 pm 12:52 Mostly Cloudy 58 14.4 50 10 75 75 S 13 20 30.01 1016 10 16 0.00 0.00
1:52 pm 13:52 Cloudy 59 15 49 9.4 69 69 S 10 17 29.98 1015 10 16 0.00 0.00
2:52 pm 14:52 Cloudy 59 15 49 9.4 69 69 S 9 15 29.95 1014 10 16 0.00 0.00
3:52 pm 15:52 Mostly Cloudy 59 15 49 9.4 69 69 SSE 17 28 29.91 1013 10 16 0.00 0.00
4:52 pm 16:52 Cloudy 58 14.4 50 10 75 75 ESE 9 15 29.89 1012 10 16 0.00 0.00
5:52 pm 17:52 Cloudy 57 13.9 49 9.4 74 74 SE 10 17 29.86 1011 10 16 0.00 0.00
6:52 pm 18:52 Cloudy 57 13.9 50 10 78 78 SE 14 22 29.83 1010 10 16 0.00 0.00
7:52 pm 19:52 Cloudy 57 13.9 50 10 78 78 S 8 13 29.84 1011 10 16 0.00 0.00
8:52 pm 20:52 Cloudy with Light Rain 56 13.3 53 11.7 90 90 ESE 14 22 29.79 1009 7 11 0.08 2.03
9:52 pm 21:52 Cloudy with Heavy Rain 56 13.3 54 12.2 93 93 ESE 12 19 29.74 1007 3 5 0.16 4.06
10:16 pm 22:16 Cloudy with Heavy Rain 55 12.8 55 12.8 100 100 E 8 13 29.74 1007 3 5 0.13 3.30
10:27 pm 22:27 Cloudy with Heavy Rain 56 13.3 56 13.3 100 100 Calm 29.74 1007 3 5 0.18 4.57
10:52 pm 22:52 Cloudy with Rain 56 13.3 56 13.3 100 100 SE 8 13 29.72 1006 4 6 0.26 6.60
11:15 pm 23:15 Cloudy with Rain 56 13.3 55 12.8 97 97 SE 10 17 29.71 1006 5 8 0.06 1.52
11:52 pm 23:52 Cloudy with Rain 56 13.3 56 13.3 100 100 SSE 13 20 29.66 1004 4 6 0.23 5.84

Powered by AerisWeather